Torna al catalogo

STARLINK-1376

AttivoComunicazioniVLEO
NORAD 45570·PAYLOAD·🇺🇸 United States

Lanciato Apr 22, 2020 da Cape Canaveral Space Force Station

Loading…

Prossimi Passaggi (prossime 24 ore)

TLE

AggiornatoSource: CelesTrak SupGP

Epoca: Sep 14, 2026, 20:19 UTC

1 45570C 20025AR  26257.84701389  .00081064  00000+0  15800-2 0  2573
2 45570  53.1512 267.6692 0004598  42.3328 234.3048 15.46887651    12

Traccia STARLINK-1376 in tempo reale con AllMySat

Download on the App Store